Cleveland Burke, OH

2:43 AM EDT on May 27, 2017 (GMT -0400)
Burke Lakefront

Weather History for KBKL - October, 2012

Change the Weather History Date:

Monday, October 15, 2012

  Actual Average Record
Temperature  
Mean Temperature 57 °F -  
Max Temperature 63 °F 60 °F 77 °F (2016)
Min Temperature 51 °F 47 °F 39 °F (2006)
Degree Days  
Heating Degree Days 8    
Growing Degree Days 7 (Base 50)    
Moisture  
Dew Point 45 °F    
Average Humidity 74    
Maximum Humidity 83    
Minimum Humidity 66    
Precipitation  
Precipitation 0.04 in - - ()
Sea Level Pressure  
Sea Level Pressure 29.77 in    
Wind  
Wind Speed 22 mph (West)    
Max Wind Speed 31 mph    
Max Gust Speed 45 mph    
Visibility 10 miles    
Events Rain    
Averages and records for this station are not official NWS values.
T = Trace of Precipitation, MM = Missing Value Source: NWS Daily Summary

Daily Weather History Graph

Daily Weather History Graph

Search for Another Location

Airport or City:

Trip Planner

Search our weather history database for the weather conditions in past years. The results will help you decide how hot, cold, wet, or windy it might be!

Date:

Astronomy

Oct. 15, 2012 Rise Set
Actual Time 7:39 AM EDT 6:44 PM EDT
Civil Twilight 7:11 AM EDT 7:12 PM EDT
Nautical Twilight 6:39 AM EDT 7:44 PM EDT
Astronomical Twilight 6:07 AM EDT 8:16 PM EDT
Moon 7:48 AM EDT (10/15) 6:42 PM EDT (10/15)
Length of Visible Light 12h 01m
Length of Day
11h 05m
New Moon, 0% of the Moon is Illuminated
Oct 15
New Moon
Oct 21
First Quarter
Oct 29
Full
Nov 6
Last Quarter
Nov 13
New

Hourly Weather History & Observations

Time (EDT) Temp. Dew Point Humidity Pressure Visibility Wind Dir Wind Speed Gust Speed Precip Events Conditions
12:53 AM 63.0 °F 54.0 °F 72% 29.56 in 10.0 mi WSW 29.9 mph 42.6 mph 0.02 in   Mostly Cloudy
1:53 AM 59.0 °F 50.0 °F 72% 29.61 in 10.0 mi WSW 31.1 mph 42.6 mph N/A   Overcast
2:04 AM 59.0 °F 48.2 °F 67% 29.62 in 10.0 mi WSW 26.5 mph 44.9 mph N/A   Overcast
2:33 AM 57.2 °F 48.2 °F 72% 29.64 in 10.0 mi West 25.3 mph 35.7 mph N/A   Overcast
2:53 AM 55.9 °F 46.9 °F 72% 29.65 in 10.0 mi SW 24.2 mph 34.5 mph N/A   Overcast
3:53 AM 55.0 °F 46.0 °F 72% 29.66 in 10.0 mi SW 20.7 mph 28.8 mph N/A   Overcast
4:53 AM 55.0 °F 46.0 °F 72% 29.67 in 10.0 mi WSW 15.0 mph 27.6 mph N/A   Overcast
5:53 AM 54.0 °F 45.0 °F 72% 29.69 in 10.0 mi WSW 17.3 mph - N/A   Overcast
6:18 AM 53.6 °F 44.6 °F 72% 29.71 in 10.0 mi SW 16.1 mph 23.0 mph N/A   Overcast
6:53 AM 53.1 °F 45.0 °F 74% 29.72 in 10.0 mi SW 16.1 mph - N/A   Overcast
7:17 AM 53.6 °F 44.6 °F 72% 29.72 in 10.0 mi SW 16.1 mph - N/A   Overcast
7:26 AM 53.6 °F 44.6 °F 72% 29.72 in 10.0 mi SW 13.8 mph 23.0 mph N/A   Overcast
7:53 AM 53.1 °F 45.0 °F 74% 29.72 in 10.0 mi SW 16.1 mph 21.9 mph N/A   Overcast
8:53 AM 53.1 °F 46.0 °F 77% 29.74 in 10.0 mi WSW 16.1 mph - N/A   Overcast
9:53 AM 53.1 °F 46.0 °F 77% 29.75 in 10.0 mi WSW 16.1 mph - N/A   Overcast
10:53 AM 53.1 °F 46.9 °F 80% 29.76 in 10.0 mi WSW 13.8 mph - 0.00 in Rain Light Rain
11:53 AM 52.0 °F 46.9 °F 83% 29.78 in 9.0 mi West 20.7 mph 26.5 mph 0.00 in   Overcast
12:14 PM 51.8 °F 46.4 °F 82% 29.78 in 10.0 mi WSW 17.3 mph - N/A   Overcast
12:49 PM 53.6 °F 46.4 °F 77% 29.78 in 10.0 mi WSW 15.0 mph - 0.00 in   Overcast
12:53 PM 53.1 °F 46.9 °F 80% 29.78 in 10.0 mi WSW 15.0 mph - 0.00 in   Overcast
1:11 PM 53.6 °F 46.4 °F 77% 29.78 in 10.0 mi West 20.7 mph 25.3 mph N/A   Overcast
1:36 PM 53.6 °F 44.6 °F 72% 29.78 in 10.0 mi West 23.0 mph 28.8 mph N/A   Overcast
1:53 PM 53.1 °F 45.0 °F 74% 29.78 in 10.0 mi West 18.4 mph 29.9 mph 0.00 in Rain Light Rain
2:14 PM 53.6 °F 44.6 °F 72% 29.78 in 10.0 mi West 24.2 mph 29.9 mph 0.00 in   Overcast
2:51 PM 51.8 °F 44.6 °F 76% 29.79 in 5.0 mi West 23.0 mph 31.1 mph 0.01 in Rain Light Rain
2:53 PM 52.0 °F 44.1 °F 74% 29.79 in 6.0 mi West 21.9 mph 31.1 mph 0.01 in Rain Light Rain
3:53 PM 53.1 °F 44.1 °F 71% 29.80 in 10.0 mi WNW 26.5 mph 34.5 mph 0.00 in   Overcast
4:53 PM 52.0 °F 44.1 °F 74% 29.82 in 10.0 mi WNW 20.7 mph 28.8 mph N/A   Overcast
5:53 PM 52.0 °F 44.1 °F 74% 29.84 in 10.0 mi WNW 19.6 mph - 0.00 in Rain Light Rain
6:53 PM 52.0 °F 43.0 °F 71% 29.85 in 10.0 mi WNW 18.4 mph 25.3 mph 0.01 in   Overcast
7:51 PM 51.8 °F 42.8 °F 71% 29.87 in 10.0 mi WNW 20.7 mph 28.8 mph N/A   Overcast
7:53 PM 52.0 °F 44.1 °F 74% 29.87 in 10.0 mi WNW 21.9 mph 28.8 mph N/A   Overcast
8:00 PM 51.8 °F 44.6 °F 76% 29.87 in 10.0 mi WNW 20.7 mph 28.8 mph N/A   Overcast
8:16 PM 51.8 °F 44.6 °F 76% 29.87 in 10.0 mi WNW 18.4 mph 29.9 mph N/A   Overcast
8:53 PM 52.0 °F 43.0 °F 71% 29.88 in 10.0 mi WNW 19.6 mph 24.2 mph N/A   Overcast
9:53 PM 51.1 °F 41.0 °F 68% 29.90 in 10.0 mi West 18.4 mph - N/A   Overcast
10:28 PM 51.8 °F 42.8 °F 71% 29.90 in 10.0 mi NW 15.0 mph - N/A   Overcast
10:39 PM 51.8 °F 42.8 °F 71% 29.89 in 10.0 mi NW 17.3 mph - N/A   Overcast
10:53 PM 51.1 °F 43.0 °F 74% 29.90 in 10.0 mi WNW 16.1 mph 21.9 mph N/A   Overcast
11:53 PM 51.1 °F 39.9 °F 66% 29.91 in 10.0 mi NW 16.1 mph 23.0 mph N/A   Overcast